AFR31SD LFBO-LFPG

Flight info

Callsign AFR31SD
Flight time 1h 1m
Altitude 34000
Route FISTO DCT POI/N0436F300 DCT PEPAX UT182 KEPER
Aircraft A320/M-SDE3FGHIRWY/LB1

Departure

Time 2026-05-08 19:27
Airport Toulouse-Blagnac Airport (LFBO)

Arrival

Time 2026-05-08 20:29
Airport Charles de Gaulle International Airport (LFPG)
Time Latitude Longitude Altitude Speed Heading
2026-05-08 19:02 43.63036 1.37246 494 ft 0 kts 53°
2026-05-08 19:19 43.63025 1.37224 481 ft 4 kts 53°
2026-05-08 19:19 43.63011 1.37197 485 ft 2 kts 53°
2026-05-08 19:19 43.62994 1.37175 489 ft 4 kts 13°
2026-05-08 19:20 43.62970 1.37179 487 ft 4 kts 327°
2026-05-08 19:20 43.62965 1.37184 486 ft 1 kts 322°
2026-05-08 19:22 43.62978 1.37169 488 ft 9 kts 321°
2026-05-08 19:23 43.63017 1.37093 489 ft 9 kts 267°
2026-05-08 19:23 43.62989 1.37024 489 ft 8 kts 236°
2026-05-08 19:23 43.62960 1.36972 488 ft 6 kts 234°
2026-05-08 19:23 43.62954 1.36889 490 ft 15 kts 302°
2026-05-08 19:24 43.63039 1.36797 490 ft 15 kts 321°
2026-05-08 19:24 43.63114 1.36715 491 ft 13 kts 322°
2026-05-08 19:24 43.63184 1.36648 492 ft 11 kts 322°
2026-05-08 19:24 43.63245 1.36582 491 ft 12 kts 323°
2026-05-08 19:25 43.63331 1.36496 488 ft 19 kts 323°
2026-05-08 19:25 43.63451 1.36372 488 ft 23 kts 323°
2026-05-08 19:25 43.63582 1.36236 486 ft 24 kts 323°
2026-05-08 19:25 43.63715 1.36096 490 ft 25 kts 323°
2026-05-08 19:26 43.63809 1.35952 491 ft 17 kts 270°
2026-05-08 19:26 43.63752 1.35817 489 ft 17 kts 228°
2026-05-08 19:26 43.63659 1.35844 489 ft 16 kts 143°
2026-05-08 19:26 43.63471 1.36039 492 ft 66 kts 143°
2026-05-08 19:27 43.62928 1.36604 483 ft 126 kts 143°
2026-05-08 19:27 43.62106 1.37460 628 ft 161 kts 142°
2026-05-08 19:27 43.61234 1.38390 1382 ft 158 kts 142°
2026-05-08 19:27 43.60359 1.39279 2137 ft 155 kts 141°
2026-05-08 19:28 43.59473 1.40197 2600 ft 168 kts 143°
2026-05-08 19:28 43.58492 1.41163 2946 ft 185 kts 146°
2026-05-08 19:28 43.57358 1.42206 3275 ft 208 kts 147°
2026-05-08 19:28 43.56090 1.43386 3641 ft 232 kts 145°
2026-05-08 19:29 43.54716 1.44760 4065 ft 256 kts 146°
2026-05-08 19:29 43.53059 1.45775 4739 ft 267 kts 168°
2026-05-08 19:29 43.51196 1.45833 5565 ft 271 kts 191°
2026-05-08 19:29 43.49449 1.44864 6473 ft 273 kts 214°
2026-05-08 19:30 43.48114 1.43022 7370 ft 275 kts 236°
2026-05-08 19:30 43.47409 1.40564 8213 ft 281 kts 260°
2026-05-08 19:30 43.47478 1.37906 9039 ft 287 kts 283°
2026-05-08 19:30 43.48359 1.35427 9859 ft 294 kts 308°
2026-05-08 19:31 43.49949 1.33637 10599 ft 301 kts 333°
2026-05-08 19:31 43.51991 1.32896 11229 ft 312 kts 353°
2026-05-08 19:31 43.54219 1.32454 11442 ft 336 kts 349°
2026-05-08 19:31 43.56587 1.31862 11780 ft 353 kts 349°
2026-05-08 19:32 43.59023 1.31254 12415 ft 359 kts 348°
2026-05-08 19:32 43.61513 1.30804 13108 ft 364 kts 354°
2026-05-08 19:32 43.64058 1.30661 13741 ft 369 kts 359°
2026-05-08 19:32 43.66601 1.30692 13922 ft 371 kts
2026-05-08 19:33 43.69186 1.30709 13970 ft 371 kts 358°
2026-05-08 19:33 43.71764 1.30615 13975 ft 371 kts 356°
2026-05-08 19:33 43.74339 1.30422 13974 ft 370 kts 355°
2026-05-08 19:33 43.76908 1.30161 13973 ft 370 kts 354°
2026-05-08 19:34 43.79478 1.29865 13973 ft 370 kts 354°
2026-05-08 19:34 43.82043 1.29560 13970 ft 370 kts 354°
2026-05-08 19:34 43.84618 1.29263 13970 ft 372 kts 354°
2026-05-08 19:34 43.87207 1.28976 14174 ft 376 kts 354°
2026-05-08 19:35 43.89824 1.28695 14876 ft 378 kts 354°
2026-05-08 19:35 43.92418 1.28421 15522 ft 381 kts 354°
2026-05-08 19:35 43.95074 1.28143 16154 ft 384 kts 354°
2026-05-08 19:35 43.97751 1.27862 16777 ft 388 kts 354°
2026-05-08 19:36 44.00449 1.27578 17389 ft 391 kts 354°
2026-05-08 19:36 44.03174 1.27292 17992 ft 395 kts 354°
2026-05-08 19:36 44.05933 1.27002 18500 ft 399 kts 354°
2026-05-08 19:36 44.08716 1.26706 19009 ft 403 kts 354°
2026-05-08 19:37 44.11516 1.26407 19522 ft 406 kts 354°
2026-05-08 19:37 44.14304 1.26109 20033 ft 408 kts 354°
2026-05-08 19:37 44.17147 1.25807 20539 ft 411 kts 354°
2026-05-08 19:37 44.20008 1.25504 21042 ft 414 kts 354°
2026-05-08 19:38 44.22893 1.25202 21550 ft 417 kts 354°
2026-05-08 19:38 44.26696 1.24806 22185 ft 421 kts 355°
2026-05-08 19:38 44.32567 1.24188 23145 ft 426 kts 355°
2026-05-08 19:38 44.38508 1.23552 23973 ft 431 kts 355°
2026-05-08 19:39 44.44541 1.22887 24745 ft 436 kts 354°
2026-05-08 19:39 44.50452 1.20917 25442 ft 440 kts 342°
2026-05-08 19:39 44.56269 1.18437 26137 ft 445 kts 343°
2026-05-08 19:39 44.62235 1.15913 26820 ft 451 kts 343°
2026-05-08 19:40 44.68275 1.13353 27498 ft 456 kts 343°
2026-05-08 19:40 44.74382 1.10758 28153 ft 461 kts 343°
2026-05-08 19:40 44.80563 1.08119 28797 ft 466 kts 343°
2026-05-08 19:40 44.86807 1.05448 29382 ft 471 kts 343°
2026-05-08 19:41 44.93107 1.02759 29949 ft 476 kts 343°
2026-05-08 19:41 44.99392 1.00070 30415 ft 480 kts 344°
2026-05-08 19:41 45.05824 0.97309 30835 ft 485 kts 344°
2026-05-08 19:41 45.12285 0.94522 31456 ft 485 kts 343°
2026-05-08 19:42 45.18732 0.91722 32073 ft 485 kts 343°
2026-05-08 19:42 45.25188 0.88919 32716 ft 484 kts 344°
2026-05-08 19:42 45.30961 0.86423 33308 ft 483 kts 344°
2026-05-08 19:42 45.34172 0.85035 33637 ft 483 kts 344°
2026-05-08 19:43 45.37389 0.83639 33907 ft 483 kts 343°
2026-05-08 19:43 45.43717 0.80873 33951 ft 476 kts 343°
2026-05-08 19:44 45.50033 0.78103 33965 ft 475 kts 343°
2026-05-08 19:44 45.56356 0.75331 33960 ft 476 kts 344°
2026-05-08 19:45 45.62677 0.72554 33962 ft 474 kts 344°
2026-05-08 19:45 45.68971 0.69787 33964 ft 473 kts 344°
2026-05-08 19:46 45.75224 0.67028 33961 ft 473 kts 344°
2026-05-08 19:46 45.84654 0.62841 33965 ft 472 kts 344°
2026-05-08 19:47 45.90922 0.60066 33968 ft 471 kts 344°
2026-05-08 19:47 45.97187 0.57288 33954 ft 471 kts 343°
2026-05-08 19:48 46.03397 0.54522 33982 ft 470 kts 343°
2026-05-08 19:48 46.09637 0.51726 33978 ft 469 kts 343°
2026-05-08 19:49 46.15864 0.48928 33978 ft 468 kts 343°
2026-05-08 19:49 46.22081 0.46135 33972 ft 467 kts 343°
2026-05-08 19:50 46.28244 0.43359 33974 ft 467 kts 343°
2026-05-08 19:50 46.34439 0.40565 33980 ft 466 kts 343°
2026-05-08 19:51 46.40629 0.37763 33981 ft 466 kts 343°
2026-05-08 19:51 46.46820 0.34966 33977 ft 466 kts 343°
2026-05-08 19:52 46.53012 0.32158 33974 ft 466 kts 344°
2026-05-08 19:52 46.59338 0.30823 33971 ft 463 kts
2026-05-08 19:53 46.65671 0.32138 33974 ft 460 kts 13°
2026-05-08 19:53 46.71927 0.34067 33974 ft 460 kts 13°
2026-05-08 19:54 46.78189 0.35979 33974 ft 459 kts 13°
2026-05-08 19:54 46.84443 0.37899 33976 ft 459 kts 13°
2026-05-08 19:55 46.90658 0.39818 33975 ft 459 kts 13°
2026-05-08 19:55 46.96911 0.41757 33959 ft 460 kts 13°
2026-05-08 19:56 47.03178 0.43703 33961 ft 461 kts 12°
2026-05-08 19:56 47.09546 0.44670 33966 ft 462 kts 356°
2026-05-08 19:57 47.15848 0.43353 33988 ft 458 kts 350°
2026-05-08 19:57 47.22081 0.41843 33996 ft 450 kts 350°
2026-05-08 19:58 47.28265 0.40353 33994 ft 451 kts 350°
2026-05-08 19:58 47.34457 0.38844 33997 ft 452 kts 350°
2026-05-08 19:59 47.40659 0.37320 34010 ft 451 kts 350°
2026-05-08 19:59 47.46805 0.35802 34010 ft 450 kts 350°
2026-05-08 20:00 47.52975 0.34276 34014 ft 449 kts 349°
2026-05-08 20:00 47.59141 0.32749 34010 ft 449 kts 350°
2026-05-08 20:01 47.65296 0.31223 34026 ft 448 kts 349°
2026-05-08 20:01 47.71467 0.29677 32887 ft 457 kts 349°
2026-05-08 20:02 47.74590 0.28897 32343 ft 452 kts 350°
2026-05-08 20:02 47.77708 0.28529 31753 ft 449 kts
2026-05-08 20:02 47.80782 0.29188 31191 ft 446 kts 16°
2026-05-08 20:02 47.83635 0.30822 30998 ft 446 kts 28°
2026-05-08 20:03 47.88801 0.36000 30235 ft 453 kts 39°
2026-05-08 20:03 47.91095 0.39220 29286 ft 454 kts 46°
2026-05-08 20:03 47.93303 0.42577 28303 ft 453 kts 46°
2026-05-08 20:04 47.95491 0.45918 27367 ft 445 kts 46°
2026-05-08 20:04 47.97623 0.49186 26465 ft 434 kts 47°
2026-05-08 20:04 47.99705 0.52380 25603 ft 424 kts 47°
2026-05-08 20:04 48.01738 0.55497 24757 ft 415 kts 47°
2026-05-08 20:05 48.03064 0.57532 24039 ft 414 kts 46°
2026-05-08 20:05 48.05060 0.60603 23363 ft 407 kts 47°
2026-05-08 20:05 48.07011 0.63607 22911 ft 399 kts 47°
2026-05-08 20:05 48.09543 0.67508 22284 ft 391 kts 47°
2026-05-08 20:06 48.11421 0.70411 21820 ft 386 kts 47°
2026-05-08 20:06 48.13279 0.73284 21355 ft 383 kts 46°
2026-05-08 20:06 48.14530 0.75218 21036 ft 381 kts 46°
2026-05-08 20:06 48.16345 0.78023 20567 ft 379 kts 46°
2026-05-08 20:07 48.18172 0.80848 20090 ft 377 kts 46°
2026-05-08 20:07 48.19991 0.83667 19614 ft 376 kts 46°
2026-05-08 20:07 48.21806 0.86481 19133 ft 375 kts 46°
2026-05-08 20:07 48.23619 0.89297 18663 ft 375 kts 45°
2026-05-08 20:08 48.25429 0.92113 18146 ft 375 kts 45°
2026-05-08 20:08 48.27233 0.94928 17654 ft 374 kts 45°
2026-05-08 20:08 48.29032 0.97737 17171 ft 372 kts 45°
2026-05-08 20:08 48.30819 1.00525 16700 ft 370 kts 45°
2026-05-08 20:09 48.32597 1.03297 16240 ft 368 kts 45°
2026-05-08 20:09 48.34347 1.06023 15775 ft 366 kts 45°
2026-05-08 20:09 48.36112 1.08781 15308 ft 365 kts 45°
2026-05-08 20:09 48.37859 1.11518 14825 ft 361 kts 45°
2026-05-08 20:10 48.39582 1.14224 14369 ft 355 kts 45°
2026-05-08 20:10 48.41279 1.16892 13908 ft 350 kts 45°
2026-05-08 20:10 48.42952 1.19526 13417 ft 346 kts 45°
2026-05-08 20:10 48.44604 1.22122 12908 ft 341 kts 45°
2026-05-08 20:11 48.46231 1.24683 12419 ft 336 kts 45°
2026-05-08 20:11 48.47834 1.27219 11936 ft 332 kts 45°
2026-05-08 20:11 48.49409 1.29714 11442 ft 324 kts 45°
2026-05-08 20:11 48.50933 1.32214 11097 ft 321 kts 51°
2026-05-08 20:12 48.52089 1.35011 11046 ft 308 kts 62°
2026-05-08 20:12 48.53058 1.37858 11059 ft 303 kts 62°
2026-05-08 20:12 48.54025 1.40673 11059 ft 302 kts 62°
2026-05-08 20:12 48.54975 1.43440 11059 ft 301 kts 62°
2026-05-08 20:13 48.55940 1.46249 11063 ft 301 kts 62°
2026-05-08 20:13 48.56919 1.49046 10988 ft 303 kts 57°
2026-05-08 20:13 48.58380 1.51258 10591 ft 299 kts 28°
2026-05-08 20:13 48.60226 1.52682 10208 ft 298 kts 24°
2026-05-08 20:14 48.62089 1.54047 9803 ft 297 kts 24°
2026-05-08 20:14 48.63944 1.55400 9372 ft 293 kts 24°
2026-05-08 20:14 48.65758 1.56727 8961 ft 288 kts 25°
2026-05-08 20:14 48.67535 1.58030 8550 ft 287 kts 25°
2026-05-08 20:15 48.69331 1.59341 8152 ft 286 kts 25°
2026-05-08 20:15 48.71103 1.60638 8061 ft 281 kts 25°
2026-05-08 20:15 48.72864 1.61943 8071 ft 282 kts 25°
2026-05-08 20:15 48.74619 1.63267 8072 ft 282 kts 26°
2026-05-08 20:16 48.76371 1.64605 8071 ft 282 kts 26°
2026-05-08 20:16 48.78123 1.65953 8071 ft 282 kts 26°
2026-05-08 20:16 48.79869 1.67302 8070 ft 282 kts 26°
2026-05-08 20:16 48.81616 1.68659 8072 ft 282 kts 26°
2026-05-08 20:17 48.83364 1.70015 8076 ft 282 kts 26°
2026-05-08 20:17 48.85116 1.71372 7911 ft 283 kts 26°
2026-05-08 20:17 48.86866 1.72726 7539 ft 281 kts 26°
2026-05-08 20:17 48.88574 1.74074 7175 ft 280 kts 30°
2026-05-08 20:18 48.90012 1.75964 7062 ft 268 kts 49°
2026-05-08 20:18 48.91158 1.78087 7054 ft 253 kts 52°
2026-05-08 20:18 48.92241 1.80171 7056 ft 250 kts 52°
2026-05-08 20:18 48.93293 1.82274 7057 ft 250 kts 54°
2026-05-08 20:19 48.94292 1.84433 7056 ft 249 kts 56°
2026-05-08 20:19 48.95278 1.86625 6829 ft 252 kts 56°
2026-05-08 20:19 48.96267 1.88825 6492 ft 251 kts 56°
2026-05-08 20:19 48.97086 1.91150 6131 ft 249 kts 69°
2026-05-08 20:20 48.97508 1.93672 5757 ft 245 kts 89°
2026-05-08 20:20 48.97466 1.96252 5414 ft 243 kts 93°
2026-05-08 20:20 48.97397 1.98776 5077 ft 239 kts 93°
2026-05-08 20:20 48.97326 2.01199 5002 ft 218 kts 93°
2026-05-08 20:21 48.97260 2.03400 5007 ft 201 kts 93°
2026-05-08 20:21 48.97196 2.05467 5004 ft 192 kts 94°
2026-05-08 20:21 48.97133 2.07484 5007 ft 190 kts 94°
2026-05-08 20:21 48.97065 2.09487 5005 ft 190 kts 97°
2026-05-08 20:22 48.96916 2.11479 5008 ft 190 kts 93°
2026-05-08 20:22 48.96926 2.13483 5008 ft 190 kts 88°
2026-05-08 20:22 48.97013 2.15487 5007 ft 190 kts 86°
2026-05-08 20:22 48.97119 2.17459 5008 ft 190 kts 86°
2026-05-08 20:23 48.97232 2.19463 5001 ft 190 kts 86°
2026-05-08 20:23 48.97346 2.21468 4842 ft 190 kts 86°
2026-05-08 20:23 48.97460 2.23476 4610 ft 191 kts 85°
2026-05-08 20:23 48.97575 2.25502 4360 ft 193 kts 85°
2026-05-08 20:24 48.97688 2.27509 4100 ft 191 kts 85°
2026-05-08 20:24 48.97800 2.29500 3855 ft 187 kts 85°
2026-05-08 20:24 48.97912 2.31481 3606 ft 189 kts 85°
2026-05-08 20:24 48.98024 2.33487 3356 ft 191 kts 85°
2026-05-08 20:25 48.98137 2.35517 3094 ft 193 kts 85°
2026-05-08 20:25 48.98250 2.37542 2826 ft 190 kts 85°
2026-05-08 20:25 48.98358 2.39488 2570 ft 184 kts 85°
2026-05-08 20:25 48.98464 2.41404 2346 ft 180 kts 84°
2026-05-08 20:26 48.98569 2.43311 2113 ft 175 kts 85°
2026-05-08 20:26 48.98665 2.45063 1898 ft 158 kts 84°
2026-05-08 20:26 48.98752 2.46648 1679 ft 143 kts 84°
2026-05-08 20:26 48.98831 2.48104 1482 ft 135 kts 84°
2026-05-08 20:27 48.98907 2.49522 1309 ft 134 kts 84°
2026-05-08 20:27 48.98994 2.50935 1098 ft 135 kts 84°
2026-05-08 20:27 48.99074 2.52368 940 ft 137 kts 84°
2026-05-08 20:27 48.99152 2.53789 687 ft 135 kts 84°
2026-05-08 20:28 48.99229 2.55225 563 ft 137 kts 84°
2026-05-08 20:28 48.99303 2.56664 411 ft 136 kts 83°
2026-05-08 20:28 48.99383 2.58013 354 ft 114 kts 84°
2026-05-08 20:28 48.99422 2.58943 352 ft 64 kts 86°
2026-05-08 20:29 48.99514 2.59411 359 ft 37 kts 62°
2026-05-08 20:29 48.99611 2.59678 358 ft 21 kts 23°
2026-05-08 20:29 48.99763 2.59681 354 ft 22 kts 352°
2026-05-08 20:29 48.99912 2.59659 362 ft 18 kts 354°
2026-05-08 20:30 48.99932 2.59657 358 ft 0 kts 356°
2026-05-08 20:30 48.99968 2.59654 354 ft 9 kts 356°
2026-05-08 20:31 49.00054 2.59644 359 ft 14 kts 355°
2026-05-08 20:31 49.00155 2.59632 358 ft 15 kts 355°
2026-05-08 20:31 49.00266 2.59618 354 ft 17 kts 355°
2026-05-08 20:31 49.00386 2.59602 354 ft 18 kts 355°
2026-05-08 20:32 49.00515 2.59586 354 ft 19 kts 355°
2026-05-08 20:32 49.00652 2.59570 357 ft 21 kts 354°
2026-05-08 20:32 49.00799 2.59550 358 ft 22 kts 357°
2026-05-08 20:32 49.00950 2.59532 354 ft 19 kts 352°
2026-05-08 20:33 49.00999 2.59379 360 ft 19 kts 267°
2026-05-08 20:33 49.00988 2.59180 354 ft 19 kts 264°
2026-05-08 20:33 49.00961 2.58976 358 ft 20 kts 252°
2026-05-08 20:33 49.00942 2.58758 354 ft 22 kts 265°
2026-05-08 20:34 49.00930 2.58522 354 ft 22 kts 265°
2026-05-08 20:34 49.00918 2.58307 354 ft 20 kts 265°
2026-05-08 20:34 49.00822 2.58072 364 ft 6 kts 243°
2026-05-08 20:35 49.00822 2.58071 364 ft 0 kts 246°
2026-05-08 20:36 49.00822 2.58070 364 ft 0 kts 246°
2026-05-08 20:36 49.00803 2.58029 357 ft 3 kts 220°
2026-05-08 20:36 49.00785 2.58018 362 ft 4 kts 205°
2026-05-08 20:37 49.00757 2.57987 359 ft 2 kts 221°
2026-05-08 20:37 49.00749 2.57974 357 ft 1 kts 224°
2026-05-08 20:37 49.00743 2.57966 357 ft 1 kts 224°
2026-05-08 20:37 49.00740 2.57962 357 ft 0 kts 224°